Regional Weather Roundup
Issued by NWS Sterling, VA

Home | Current Version | Previous Version | Graphics & Text | Print | Product List | Glossary On
Versions: 1 2 3 4 5 6 7 8 9 10 11 12 13 14 15 16 17 18 19 20 21 22 23 24 25 26 27 28 29 30 31 32 33 34 35 36 37 38 39 40 41 42 43 44 45 46 47 48
000
ASUS41 KLWX 260310
RWRLWX

REGIONAL WEATHER ROUNDUP
NATIONAL WEATHER SERVICE BALTIMORE MD/WASHINGTON DC
1100 PM EDT MON MAY 25 2015

Note: "FAIR" indicates few or no clouds below 12,000 feet
with no significant weather and/or obstructions to visibility.
 TC=TEMPERATURE CELSIUS

 * =Non NWS site. Station does not report precipitation (e.g. rain,
    snow, etc.), thunder, or fog.

DCZ001-MDZ009-015-VAZ040>042-051-053>054-260400-
WASHINGTON METRO

CITY           SKY/WX    TMP DP  RH WIND       PRES   REMARKS
WASHINGTON NAT MOCLDY    75  60  59 S9        30.22S
DULLES         PTCLDY    73  56  54 S9        30.21S
ANDREWS AFB    CLEAR     67  61  80 SE9       30.22S
FT BELVOIR     CLEAR     66  60  79 SE5       30.22R
QUANTICO       CLEAR     74  64  71 S8        30.23R
COLLEGE PARK*  CLEAR     73  61  64 CALM      30.22S
LEESBURG*      CLEAR     73  61  64 S7        30.21S
MANASSAS*      CLEAR     70  57  64 S5        30.21
GAITHERSBURG*  CLEAR     73  55  53 S6        30.26R

$$

MDZ006>007-011-014-260400-
BALTIMORE METRO

CITY           SKY/WX    TMP DP  RH WIND       PRES   REMARKS
BWI AIRPORT    CLEAR     69  60  73 VRB6      30.22R
MD SCIENCE CTR   N/A     72  61  68 MISG      30.23R
MARTIN STATE   CLEAR     72  63  73 SE14G23   30.24R
ANNAPOLIS      CLEAR     69  61  75 S15       30.23R
FORT MEADE*    CLEAR     66  59  77 SE3       30.24S

$$

MDZ012-015-019>023-260400-
MARYLAND EASTERN SHORE

CITY           SKY/WX    TMP DP  RH WIND       PRES   REMARKS
OCEAN CITY     CLEAR     65  59  81 SW10G20   30.29R
SALISBURY      CLEAR     65  57  75 S8        30.27S
BAY BRIDGE AP*   N/A    N/A N/A N/A S14       30.23S
CAMBRIDGE*     CLEAR     72  61  68 S9        30.25S
EASTON*        CLEAR     71  60  68 S13       30.28S

$$

MDZ017>025-260400-
SOUTHERN MARYLAND

CITY           SKY/WX    TMP DP  RH WIND       PRES   REMARKS
PATUXENT RIVER CLEAR     69  60  73 E10G16    30.24S
ST INIGOES     CLEAR     69  63  81 SE6       30.24S
LEONARDTOWN*   CLEAR     68  59  73 S5        30.26S

$$

MDZ003>005-260400-
NORTH CENTRAL MARYLAND

CITY           SKY/WX    TMP DP  RH WIND       PRES   REMARKS
FREDERICK*     CLEAR     72  59  64 S6        30.22S
HAGERSTOWN APT CLEAR     75  56  51 S9        30.18R
WESTMINSTER*   CLEAR     73  57  56 S10       30.22S

$$

MDZ501>502-260400-
WESTERN MARYLAND

CITY           SKY/WX    TMP DP  RH WIND       PRES   REMARKS
OAKLAND*       CLEAR     64  54  68 S5        30.25S
CUMBERLAND*    CLEAR     72  59  64 S5        30.20R

$$

VAZ025>031-260400-
SHENANDOAH VALLEY

CITY           SKY/WX    TMP DP  RH WIND       PRES   REMARKS
WINCHESTER*    CLEAR     72  50  46 S5        30.20S
FRONT ROYAL*   FAIR      72  57  60 SW7       30.19S
LURAY*         FAIR      72  57  60 SW6       30.22S
NEW MARKET*    FAIR      69  56  62 W3        30.21R
STAUNTON*      CLEAR     64  55  71 CALM      30.26R
WAYNESBORO*    FAIR      69  55  62 S6        30.26R

$$

WVZ021-048>050-054>055-260400-
EASTERN WEST VIRGINIA PANHANDLE

CITY           SKY/WX    TMP DP  RH WIND       PRES   REMARKS
MARTINSBURG    CLEAR     71  56  58 SW3       30.19R
PETERSBURG*    CLEAR     72  54  53 SE6       30.19S

$$

VAZ036>039-050-260400-
CENTRAL FOOTHILLS

CITY           SKY/WX    TMP DP  RH WIND       PRES   REMARKS
CHARLOTTESVILL CLEAR     69  56  62 S10       30.23R
CULPEPER*      CLEAR     69  57  65 S6        30.22S
ORANGE*        CLEAR     64  59  82 CALM      30.24F
GORDONSVILLE*  FAIR      61  57  87 CALM      30.22F
WARRENTON*     FAIR      72  59  64 S6        30.21F

$$

VAZ055>057-260400-
NORTH AND CENTRAL PIEDMONT

CITY           SKY/WX    TMP DP  RH WIND       PRES   REMARKS
FREDERICKSBRG* CLEAR     71  60  67 S5        30.22S
STAFFORD*      CLEAR     67  57  69 S3        30.26S

$$

NCZ024-NYZ072-PAZ021-071-VAZ022-071-260400-
OTHER REGIONAL OBSERVATIONS

CITY           SKY/WX    TMP DP  RH WIND       PRES   REMARKS
NEW YORK CITY  PTCLDY    74  56  53 VRB3      30.22R
PHILADELPHIA   PTCLDY    73  57  57 S9        30.23R
PITTSBURGH     MOCLDY    75  60  59 S3        30.13S
ROANOKE        CLEAR     72  55  55 CALM      30.27S
RICHMOND       PTCLDY    70  58  65 S7        30.26R
RALEIGH        PTCLDY    72  59  63 S8        30.28R

$$

ANZ530>537-260400-
MARINE OBSERVATIONS

STATION/POSITION TIME  TEMP    WIND        PRES
                       AIR SEA DIR/SP/G
                 (UTC) (F)     (DEG/KT/KT) (MB)
THOMAS PT LIGHT  0300   69 67  170/ 19/ 21 1024.0R
BALT KEY BRIDGE  0200   71     150/ 15/ 17 1022.6R
LEWISETTA        0200   70 71              1024.0R
SOLOMONS ISLAND  0200      70                N/A
PINEY POINT      0200          180/ 10/ 12   N/A

$$



USA.gov is the U.S. government's official web portal to all federal, state and local government web resources and services.